Flag for Brazil Weather past 2 weeks in Itabuna, Bahia, Brazil

Now
73 °F

Heavy rain. Fog.


Feels Like: 72 °F
Forecast: 71 / 84 °F
Wind: 2 mph from Northwest

Location: Salvador Aeroporto

Current Time: Apr 27, 2015 at 6:28:37 AM

Latest Report: Apr 27, 2015 at 5:00 AM


Visibility: 2 mi

Pressure: 29.92 "Hg

Humidity: 89%

Dew point: 70 °F

Location of ItabunaLocation

Historic Weather in Itabuna — Graph

°F

Itabuna temperature yesterday

Maximum temperature yesterday: 84 °F (at 10:00 AM)
Minimum temperature yesterday: 75 °F (at 6:48 AM)
Average temperature yesterday: 79 °F

Past Weeks' High & Low Weather Summary

 TemperatureHumidityPressure
High88 °F (Apr 21, 10:00 AM)100% (Apr 15, 3:00 AM)30.01 "Hg (Apr 15, 3:00 AM)
Low73 °F (Apr 27, 5:00 AM)59% (Apr 13, 1:00 PM)29.83 "Hg (Apr 19, 3:00 PM)
Average82 °F74%29.93 "Hg
* Reported Apr 12 5:00 AM — Apr 27 5:00 AM, Itabuna, Weather by CustomWeather, © 2015

Note: Actual official high and low records may vary slightly from our data, if they occured in-between our weather recording intervals... More about our weather records

Advertising

Itabuna weather history for previous 24 hours

 ConditionsComfort  
Time TempWeatherWind HumidityBarometerVisibility
5:00 AM
Mon, Apr 27
73 °FHeavy rain. Fog.2 mph89%29.92 "Hg2 mi
4:00 AM77 °FPassing clouds.9 mph83%29.92 "HgN/A
3:00 AM79 °FPartly cloudy.10 mph84%29.92 "HgN/A
2:00 AM81 °FPassing clouds.9 mph74%29.92 "HgN/A
1:00 AM81 °FPassing clouds.7 mph79%29.98 "HgN/A
12:00 AM81 °FPassing clouds.7 mph79%29.98 "HgN/A
11:00 PM
Sun, Apr 26
79 °FPartly cloudy.5 mph79%29.98 "Hg5 mi
10:00 PM79 °FPartly cloudy.8 mph84%29.98 "Hg5 mi
9:00 PM79 °FPartly cloudy.7 mph79%29.98 "HgN/A
8:00 PM79 °FPartly cloudy.7 mph79%29.98 "HgN/A
7:00 PM79 °FPartly cloudy.7 mph84%29.95 "HgN/A
6:00 PM77 °FPassing clouds.3 mph89%29.95 "HgN/A
5:00 PM77 °FLight rain. Partly sunny.7 mph89%29.92 "Hg4 mi
4:00 PM77 °FThunderstorms. Broken clouds.8 mph89%29.92 "Hg2 mi
3:00 PM75 °FThunderstorms. Broken clouds.8 mph89%29.92 "Hg1 mi
2:00 PM79 °FThunderstorms. Fog.5 mph84%29.89 "Hg2 mi
1:00 PM82 °FThunderstorms. Partly sunny.9 mph74%29.92 "Hg3 mi
12:45 PM82 °FThunderstorms. Partly sunny.8 mph74%29.92 "Hg3 mi
12:00 PM81 °FLight rain. Fog.3 mph84%29.92 "Hg3 mi
11:00 AM77 °FRain. Fog.6 mph83%29.95 "Hg2 mi
10:00 AM84 °FPartly sunny.3 mph70%29.98 "Hg5 mi
9:00 AM82 °FPartly sunny.3 mph79%29.95 "Hg5 mi
8:00 AM82 °FPartly sunny.3 mph79%29.95 "Hg4 mi
7:00 AM75 °FBroken clouds.3 mph89%29.95 "Hg4 mi
6:48 AM75 °FBroken clouds.3 mph89%29.95 "Hg4 mi
6:00 AM77 °FRain. Fog.13 mph89%29.92 "Hg3 mi
Weather by CustomWeather, © 2015

See weather overviewHow to use our weather pages